Satellite-Ground Cal/Val Site Overpasses Predictions

Prediction of Satellite NPP Overpassing Cal/Val Site: Antarctic Dome C

Ground Cal/Val Site Location: Latitude: -75.10, Longitude: 123.35; Satellite-Ground Site NADIR distance within 100 km.

Table of predicted overpasses for the next 14.0 days since TLE Epoch: 1/19/2019
Interval Starting Time Ending Time Minimum Distance Time Minimum Distance (km)
1 01/19/2019 14:55:11 01/19/2019 14:55:40 01/19/2019 14:55:25 22.81
2 01/20/2019 14:36:28 01/20/2019 14:36:43 01/20/2019 14:36:35 84.41
3 01/21/2019 07:38:01 01/21/2019 07:38:28 01/21/2019 07:38:14 38.50
4 01/22/2019 07:19:14 01/22/2019 07:19:35 01/22/2019 07:19:25 71.47
5 01/24/2019 15:01:28 01/24/2019 15:01:51 01/24/2019 15:01:40 59.80
6 01/25/2019 14:42:38 01/25/2019 14:43:03 01/25/2019 14:42:50 49.51
7 01/26/2019 07:44:19 01/26/2019 07:44:39 01/26/2019 07:44:29 73.61
8 01/27/2019 07:25:25 01/27/2019 07:25:53 01/27/2019 07:25:39 34.18
9 01/29/2019 15:07:52 01/29/2019 15:07:58 01/29/2019 15:07:55 97.45
10 01/30/2019 14:48:51 01/30/2019 14:49:20 01/30/2019 14:49:05 13.90


NCC Satellite Cal/Val Overpasses Prediction Service
